Location: Roland
(31.1349°N, 85.4372°W)
Time: 14:02:50
(UTC+00:00)

X-37B - Pass Details

Date: 13 March 2021
Orbit: 380 x 394 km, 45.0° (Epoch: 07 April)

Event Time Altitude Azimuth Distance (km) Brightness Sun altitude
Rises 00:23:28 0° 251° (WSW) 2,255 6.0 -8.4°
Reaches altitude 10° 00:25:37 10° 260° (W) 1,406 5.0 -8.8°
Maximum altitude 00:28:34 36° 329° (NNW) 631 2.0 -9.5°
Drops below altitude 10° 00:31:34 10° 39° (NE) 1,419 3.1 -10.1°
Enters shadow 00:32:20 - 43° (NE) 1,716 3.5 -10.3°
